Flag for Puerto Rico Weather past 2 weeks in San Juan, Puerto Rico

Now
84 °F

Scattered clouds.


Feels Like: 96 °F
Forecast: N/A
Wind: 9 mph from East

Location: Luis Munoz Marin

Current Time: Sep 18, 2014 at 7:50:46 PM

Latest Report: Sep 18, 2014 at 6:56 PM


Visibility: 10 mi

Pressure: 29.93 "Hg

Humidity: 85%

Dew point: 79 °F

Location of San JuanLocation

Historic Weather in San Juan — Graph

°F

San Juan temperature yesterday

Maximum temperature yesterday: 88 °F (at 11:56 AM)
Minimum temperature yesterday: 79 °F (at 3:56 AM)
Average temperature yesterday: 83 °F

Past Weeks' High & Low Weather Summary

 TemperatureHumidityPressure
High90 °F (Sep 12, 1:56 PM)100% (Sep 7, 9:56 AM)30.07 "Hg (Sep 7, 9:56 AM)
Low75 °F (Sep 7, 9:56 AM)61% (Sep 11, 3:56 PM)29.89 "Hg (Sep 18, 2:56 PM)
Average83 °F81%29.98 "Hg
* Reported Sep 3 5:56 PM — Sep 18 5:56 PM, San Juan, Weather by CustomWeather, © 2014

Note: Actual official high and low records may vary slightly from our data, if they occured in-between our weather recording intervals... More about our weather records

Advertising

San Juan weather history for previous 24 hours

 ConditionsComfort  
Time TempWeatherWind HumidityBarometerVisibility
5:56 PM
Sep 18
84 °FScattered clouds.9 mph85%29.90 "Hg10 mi
4:56 PM85 °FScattered clouds.8 mph80%29.90 "Hg10 mi
3:56 PM86 °FScattered clouds.13 mph77%29.89 "Hg10 mi
2:56 PM88 °FScattered clouds.14 mph73%29.89 "Hg10 mi
1:56 PM88 °FScattered clouds.9 mph73%29.90 "Hg10 mi
12:56 PM88 °FScattered clouds.9 mph73%29.93 "Hg10 mi
11:56 AM88 °FScattered clouds.12 mph75%29.96 "Hg10 mi
10:56 AM87 °FScattered clouds.8 mph75%29.98 "Hg10 mi
9:56 AM86 °FScattered clouds.7 mph75%29.97 "Hg10 mi
8:56 AM84 °FScattered clouds.6 mph83%29.97 "Hg10 mi
7:56 AM83 °FScattered clouds.No wind85%29.97 "Hg10 mi
6:56 AM80 °FPassing clouds.No wind94%29.96 "Hg10 mi
5:56 AM79 °FPassing clouds.No wind94%29.95 "Hg10 mi
4:56 AM79 °FPassing clouds.No wind94%29.93 "Hg10 mi
3:56 AM80 °FPassing clouds.No wind90%29.93 "Hg10 mi
2:56 AM80 °FPassing clouds.No wind90%29.94 "Hg10 mi
1:56 AM80 °FPassing clouds.No wind90%29.95 "Hg10 mi
12:56 AM80 °FPassing clouds.5 mph96%29.96 "Hg10 mi
11:56 PM
Sep 17
83 °FPassing clouds.8 mph79%29.97 "Hg10 mi
10:56 PM82 °FPassing clouds.3 mph85%29.98 "Hg10 mi
9:56 PM82 °FPassing clouds.6 mph85%29.98 "Hg10 mi
8:56 PM83 °FPassing clouds.7 mph82%29.96 "Hg10 mi
7:56 PM82 °FPassing clouds.6 mph82%29.93 "Hg10 mi
Weather by CustomWeather, © 2014

See weather overviewHow to use our weather pages